Flag for Singapore Weather past 2 weeks in Singapore, Singapore

Now
84 °F

Passing clouds.


Feels Like: 92 °F
Forecast: 81 / 91 °F
Wind: 6 mph from South

Location: Changi Airport

Current Time: May 30, 2015 at 3:16:05 AM

Latest Report: May 30, 2015 at 3:00 AM


Visibility: N/A

Pressure: 29.83 "Hg

Humidity: 74%

Dew point: 75 °F

Location of SingaporeLocation

Historic Weather in Singapore — Graph

°F

Singapore temperature yesterday

Maximum temperature yesterday: 91 °F (at 4:30 PM)
Minimum temperature yesterday: 82 °F (at 6:00 AM)
Average temperature yesterday: 86 °F

Past Weeks' High & Low Weather Summary

 TemperatureHumidityPressure
High91 °F (May 19, 2:30 PM)94% (May 15, 5:00 AM)29.95 "Hg (May 15, 5:00 AM)
Low77 °F (May 15, 12:30 PM)52% (May 29, 4:30 PM)29.74 "Hg (May 17, 3:30 PM)
Average84 °F80%29.85 "Hg
* Reported May 15 2:00 AM — May 30 2:00 AM, Singapore, Weather by CustomWeather, © 2015

Note: Actual official high and low records may vary slightly from our data, if they occured in-between our weather recording intervals... More about our weather records

Advertising

Singapore weather history for previous 24 hours

 ConditionsComfort  
Time TempWeatherWind HumidityBarometerVisibility
2:00 AM
Sat, May 30
84 °FClear.8 mph74%29.83 "Hg10 mi
1:30 AM84 °FPassing clouds.8 mph74%29.86 "HgN/A
1:00 AM84 °FPassing clouds.8 mph74%29.86 "HgN/A
12:30 AM84 °FPassing clouds.10 mph79%29.86 "HgN/A
12:00 AM84 °FPassing clouds.10 mph79%29.89 "HgN/A
11:30 PM
Fri, May 29
84 °FPassing clouds.8 mph79%29.89 "HgN/A
11:00 PM86 °FPassing clouds.7 mph75%29.89 "HgN/A
10:30 PM86 °FPassing clouds.8 mph75%29.89 "HgN/A
10:00 PM86 °FPassing clouds.8 mph75%29.86 "HgN/A
9:30 PM86 °FPassing clouds.7 mph75%29.86 "HgN/A
9:00 PM86 °FPassing clouds.8 mph75%29.83 "HgN/A
8:30 PM86 °FPassing clouds.8 mph75%29.83 "HgN/A
8:00 PM86 °FPassing clouds.9 mph70%29.83 "HgN/A
7:30 PM86 °FPassing clouds.10 mph66%29.80 "HgN/A
7:00 PM88 °FPartly sunny.10 mph62%29.80 "HgN/A
6:30 PM88 °FPartly sunny.14 mph59%29.77 "HgN/A
6:00 PM88 °FPartly sunny.14 mph62%29.77 "HgN/A
5:30 PM88 °FPartly sunny.16 mph62%29.77 "HgN/A
5:00 PM90 °FPartly sunny.14 mph63%29.77 "HgN/A
4:30 PM91 °FPartly sunny.12 mph52%29.77 "HgN/A
4:00 PM90 °FPartly sunny.9 mph59%29.77 "HgN/A
3:30 PM90 °FPartly sunny.10 mph59%29.77 "HgN/A
3:00 PM90 °FPartly sunny.12 mph63%29.80 "HgN/A
2:30 PM90 °FPartly sunny.9 mph63%29.80 "HgN/A
2:00 PM90 °FPartly sunny.10 mph59%29.83 "HgN/A
1:30 PM90 °FPartly sunny.14 mph59%29.83 "HgN/A
1:00 PM86 °FScattered clouds.15 mph66%29.86 "HgN/A
12:30 PM90 °FScattered showers. Partly sunny.12 mph67%29.86 "HgN/A
12:00 PM88 °FPartly sunny.6 mph66%29.86 "HgN/A
11:30 AM88 °FBroken clouds.6 mph66%29.89 "HgN/A
11:00 AM88 °FBroken clouds.6 mph70%29.89 "HgN/A
10:30 AM88 °FBroken clouds.7 mph66%29.89 "HgN/A
10:00 AM88 °FBroken clouds.9 mph70%29.89 "HgN/A
9:30 AM86 °FBroken clouds.10 mph79%29.89 "HgN/A
9:00 AM86 °FBroken clouds.9 mph79%29.89 "HgN/A
8:30 AM84 °FPartly sunny.9 mph79%29.86 "HgN/A
8:00 AM84 °FPartly sunny.8 mph79%29.86 "HgN/A
7:30 AM84 °FPartly sunny.6 mph79%29.86 "HgN/A
7:00 AM82 °FPartly sunny.7 mph84%29.83 "HgN/A
6:00 AM82 °FPartly cloudy.6 mph84%29.83 "HgN/A
5:30 AM84 °FPassing clouds.5 mph79%29.80 "HgN/A
5:00 AM84 °FPassing clouds.6 mph79%29.80 "HgN/A
4:30 AM84 °FPassing clouds.6 mph79%29.80 "HgN/A
4:00 AM84 °FPassing clouds.5 mph79%29.80 "HgN/A
3:30 AM84 °FPassing clouds.3 mph79%29.80 "HgN/A
3:00 AM84 °FPassing clouds.6 mph79%29.83 "HgN/A
Weather by CustomWeather, © 2015

See weather overviewHow to use our weather pages